EW9434 Weather Reports


time (UTC)temp
F
wind
direction
speed
knots
gust
knots
rain 1hr
in
rain 24hr
in
rain mn
in
humidity
%
barometer
mb
20260508151503 63 153 3.5 14.8 0.00 0.00 0.00 51 1013.7
20260508151445 63 147 5.2 14.8 0.00 0.00 0.00 51 1013.5
20260508150944 63 124 5.2 13.0 0.00 0.00 0.00 53 1013.5
20260508150438 62 159 5.2 13.0 0.00 0.00 0.00 50 1013.6
20260508150021 62 210 4.3 14.8 0.00 0.00 0.00 51 1013.9
20260508145937 62 165 6.1 14.8 0.00 0.00 0.00 50 1013.5
20260508145433 62 199 6.1 14.8 0.00 0.00 0.00 50 1013.5
20260508144932 61 134 7.0 13.9 0.00 0.00 0.00 50 1013.6
20260508144510 61 199 7.0 10.4 0.00 0.00 0.00 50 1013.9
20260508144428 61 143 5.2 12.2 0.00 0.00 0.00 51 1013.6
20260508143925 61 161 5.2 12.2 0.00 0.00 0.00 50 1013.6
20260508143423 61 184 5.2 12.2 0.00 0.00 0.00 50 1013.8
20260508143059 60 205 4.3 12.2 0.00 0.00 0.00 50 1014.0
20260508142920 60 123 6.1 13.9 0.00 0.00 0.00 49 1013.8
20260508142419 60 34 6.1 13.9 0.00 0.00 0.00 49 1013.8
20260508141917 60 151 6.1 13.9 0.00 0.00 0.00 49 1013.8
20260508141526 60 229 6.1 13.9 0.00 0.00 0.00 50 1014.2
20260508141350 60 205 5.2 13.9 0.00 0.00 0.00 52 1014.0
20260508140844 60 133 4.3 12.2 0.00 0.00 0.00 49 1013.9
20260508140344 60 105 3.5 9.6 0.00 0.00 0.00 49 1014.1
20260508140100 59 217 2.6 8.7 0.00 0.00 0.00 52 1014.4
20260508135839 60 155 3.5 9.6 0.00 0.00 0.00 51 1014.0
20260508135605 59 120 3.5 9.6 0.00 0.00 0.00 54 1014.0
20260508134812 59 222 3.5 7.8 0.00 0.00 0.00 52 1014.1
20260508134532 58 97 2.6 7.8 0.00 0.00 0.00 54 1014.4
20260508134246 58 126 3.5 10.4 0.00 0.00 0.00 54 1014.1
20260508133721 58 142 4.3 10.4 0.00 0.00 0.00 56 1014.1
20260508133216 58 148 3.5 11.3 0.00 0.00 0.00 54 1014.1
20260508133017 57 288 4.3 11.3 0.00 0.00 0.00 53 1014.5
20260508132714 57 286 3.5 11.3 0.00 0.00 0.00 55 1014.1
20260508132209 56 288 3.5 11.3 0.00 0.00 0.00 55 1014.1
20260508131709 56 285 2.6 8.7 0.00 0.00 0.00 58 1014.1
20260508131527 55 284 2.6 7.0 0.00 0.00 0.00 58 1014.5
20260508131139 55 284 1.7 6.1 0.00 0.00 0.00 61 1014.1
20260508130638 55 285 1.7 4.3 0.00 0.00 0.00 62 1014.1
20260508130136 54 285 1.7 3.5 0.00 0.00 0.00 62 1014.1
20260508130104 54 285 1.7 3.5 0.00 0.00 0.00 62 1014.4
20260508125609 54 289 2.6 7.0 0.00 0.00 0.00 62 1014.1
20260508125105 54 285 2.6 7.0 0.00 0.00 0.00 61 1014.0
20260508124603 53 99 2.6 8.7 0.00 0.00 0.00 62 1014.1
20260508124532 53 121 1.7 5.2 0.00 0.00 0.00 63 1014.4
20260508124038 53 147 2.6 8.7 0.00 0.00 0.00 63 1014.0
20260508123734 53 120 1.7 4.3 0.00 0.00 0.00 64 1014.0
20260508123025 52 120 1.7 4.3 0.00 0.00 0.00 63 1014.3
20260508122945 52 119 2.6 7.8 0.00 0.00 0.00 63 1013.9
20260508122418 52 285 2.6 7.8 0.00 0.00 0.00 64 1013.9
20260508121915 52 292 2.6 7.0 0.00 0.00 0.00 64 1014.0
20260508121610 51 286 2.6 7.0 0.00 0.00 0.00 64 1014.3
20260508121413 51 285 2.6 6.1 0.00 0.00 0.00 64 1013.9
20260508120848 51 285 2.6 6.1 0.00 0.00 0.00 65 1014.0
20260508120338 51 273 2.6 6.1 0.00 0.00 0.00 66 1014.0
20260508120056 51 286 1.7 6.1 0.00 0.00 0.00 65 1013.9
20260508120029 50 284 2.6 5.2 0.00 0.00 0.00 65 1014.3
20260508115535 50 286 1.7 4.3 0.00 0.00 0.00 65 1013.8
20260508114743 50 285 1.7 2.6 0.00 0.00 0.00 66 1013.9
20260508114540 50 285 0.9 2.6 0.00 0.00 0.00 66 1014.2
20260508114241 50 285 1.7 4.3 0.00 0.00 0.00 66 1013.8
20260508113715 50 285 1.7 4.3 0.00 0.00 0.00 66 1013.8
20260508113414 50 285 1.7 4.3 0.00 0.00 0.00 65 1013.7
20260508113009 50 285 0.9 2.6 0.00 0.00 0.00 65 1014.0
20260508112620 50 285 1.7 5.2 0.00 0.00 0.00 65 1013.7
20260508112120 50 285 1.7 5.2 0.00 0.00 0.00 65 1013.6
20260508111600 50 285 1.7 6.1 0.00 0.00 0.00 65 1013.6
20260508111534 50 285 1.7 5.2 0.00 0.00 0.00 65 1013.9
20260508111306 50 285 1.7 6.1 0.00 0.00 0.00 65 1013.5
20260508110546 50 285 1.7 4.3 0.00 0.00 0.00 65 1013.5
20260508110527 50 285 0.9 3.5 0.00 0.00 0.00 65 1013.4
20260508110104 49 285 0.0 3.5 0.00 0.00 0.00 66 1013.7
20260508105544 49 285 0.9 3.5 0.00 0.00 0.00 66 1013.4
20260508105021 49 285 0.9 3.5 0.00 0.00 0.00 66 1013.4
20260508104533 49 285 0.0 2.6 0.00 0.00 0.00 66 1013.7
20260508104456 49 285 0.9 3.5 0.00 0.00 0.00 66 1013.4
20260508103932 49 285 1.7 6.1 0.00 0.00 0.00 66 1013.5
20260508103431 49 285 1.7 6.1 0.00 0.00 0.00 66 1013.5
20260508103125 49 285 0.9 3.5 0.00 0.00 0.00 66 1013.5
20260508103058 49 285 1.7 3.5 0.00 0.00 0.00 66 1013.8
20260508102340 49 285 0.9 3.5 0.00 0.00 0.00 67 1013.5
20260508101818 49 285 0.9 3.5 0.00 0.00 0.00 67 1013.4
20260508101507 48 285 0.0 3.5 0.00 0.00 0.00 67 1013.8
20260508101317 49 285 1.7 3.5 0.00 0.00 0.00 67 1013.4
20260508100812 49 285 0.9 3.5 0.00 0.00 0.00 67 1013.4
20260508100313 49 285 0.9 2.6 0.00 0.00 0.00 67 1013.3
20260508100027 48 285 0.9 3.5 0.00 0.00 0.00 67 1013.7
20260508095756 49 285 0.9 3.5 0.00 0.00 0.00 66 1013.4
20260508095517 49 285 0.9 2.6 0.00 0.00 0.00 66 1013.4
20260508095217 49 285 0.9 2.6 0.00 0.00 0.00 66 1013.4
20260508094530 48 285 0.9 2.6 0.00 0.00 0.00 66 1013.7
20260508094237 49 285 0.9 2.6 0.00 0.00 0.00 66 1013.5
20260508093717 49 285 0.9 2.6 0.00 0.00 0.00 66 1013.5
20260508093219 48 285 0.9 2.6 0.00 0.00 0.00 67 1013.4
20260508093041 48 285 0.9 2.6 0.00 0.00 0.00 67 1013.8
20260508092649 48 285 0.9 2.6 0.00 0.00 0.00 67 1013.5
20260508092121 48 285 0.9 2.6 0.00 0.00 0.00 67 1013.5
20260508091618 48 285 0.9 2.6 0.00 0.00 0.00 67 1013.4
20260508091503 48 285 0.0 2.6 0.00 0.00 0.00 67 1013.8
20260508091322 48 285 0.9 2.6 0.00 0.00 0.00 67 1013.4
20260508090600 48 285 0.0 1.7 0.00 0.00 0.00 67 1013.6
20260508090100 48 285 0.0 1.7 0.00 0.00 0.00 66 1013.6
20260508090029 48 285 0.0 0.9 0.00 0.00 0.00 66 1014.0
20260508085811 48 285 0.0 1.7 0.00 0.00 0.00 66 1013.5
20260508085043 48 285 0.9 3.5 0.00 0.00 0.00 66 1013.5
20260508084603 48 285 0.0 3.5 0.00 0.00 0.00 66 1013.7
20260508084527 48 285 0.9 3.5 0.00 0.00 0.00 66 1013.3
20260508084008 48 285 0.0 1.7 0.00 0.00 0.00 66 1013.4
20260508083446 48 285 0.9 2.6 0.00 0.00 0.00 66 1013.4
20260508083201 48 285 0.9 2.6 0.00 0.00 0.00 66 1013.3
20260508083030 47 285 0.9 2.6 0.00 0.00 0.00 66 1013.7
20260508082440 48 286 0.9 3.5 0.00 0.00 0.00 67 1013.3
20260508081939 48 285 0.9 3.5 0.00 0.00 0.00 67 1013.3
20260508081509 48 285 0.0 2.6 0.00 0.00 0.00 66 1013.7
20260508081437 48 285 0.9 2.6 0.00 0.00 0.00 67 1013.3
20260508081407 48 285 0.9 2.6 0.00 0.00 0.00 66 1013.4
20260508080619 48 285 1.7 4.3 0.00 0.00 0.00 65 1013.2
20260508075826 48 286 1.7 3.5 0.00 0.00 0.00 65 1013.3
20260508075747 48 286 0.9 3.5 0.00 0.00 0.00 65 1013.3
20260508074757 48 286 0.9 3.5 0.00 0.00 0.00 65 1013.3
20260508074525 48 286 0.0 3.5 0.00 0.00 0.00 65 1013.7
20260508074237 48 286 0.9 3.5 0.00 0.00 0.00 65 1013.4
20260508073711 49 286 0.9 2.6 0.00 0.00 0.00 65 1013.3
20260508073148 48 286 0.9 3.5 0.00 0.00 0.00 64 1013.2
20260508073011 48 286 0.9 3.5 0.00 0.00 0.00 65 1013.6
20260508072618 48 286 0.9 3.5 0.00 0.00 0.00 65 1013.2
20260508072118 48 286 0.9 2.6 0.00 0.00 0.00 65 1013.3
20260508071552 48 286 0.9 2.6 0.00 0.00 0.00 65 1013.3
20260508071533 48 286 0.9 2.6 0.00 0.00 0.00 65 1013.7
20260508071050 49 286 0.9 2.6 0.00 0.00 0.00 64 1013.4
20260508070820 49 286 0.9 2.6 0.00 0.00 0.00 63 1013.4
20260508070027 49 286 1.7 3.5 0.00 0.00 0.00 62 1013.5
20260508070003 49 286 0.0 3.5 0.00 0.00 0.00 62 1013.9
20260508065459 49 286 1.7 4.3 0.00 0.00 0.00 61 1013.5
20260508064955 49 286 1.7 3.5 0.00 0.00 0.00 61 1013.4
20260508064544 49 286 0.9 7.0 0.00 0.00 0.00 61 1013.9
20260508064454 49 285 1.7 7.0 0.00 0.00 0.00 61 1013.5
20260508063926 49 286 1.7 4.3 0.00 0.00 0.00 62 1013.7
20260508063904 49 286 1.7 4.3 0.00 0.00 0.00 63 1013.8
20260508063109 48 286 0.9 3.5 0.00 0.00 0.00 64 1014.3
20260508062921 49 286 0.9 4.3 0.00 0.00 0.00 64 1013.9
20260508062418 49 286 1.7 6.1 0.00 0.00 0.00 64 1013.9
20260508061903 49 286 1.7 6.1 0.00 0.00 0.00 64 1013.9
20260508061622 49 286 1.7 6.1 0.00 0.00 0.00 65 1014.0
20260508061532 49 286 0.9 4.3 0.00 0.00 0.00 66 1014.4
20260508061127 49 286 1.7 6.1 0.00 0.00 0.00 65 1013.9
20260508060558 49 285 1.7 3.5 0.00 0.00 0.00 64 1014.0
20260508060046 49 285 0.9 3.5 0.00 0.00 0.00 64 1014.4
20260508055812 49 286 0.9 3.5 0.00 0.00 0.00 64 1013.9
20260508055245 49 286 0.9 2.6 0.00 0.00 0.00 64 1013.9
20260508054715 49 285 0.0 2.6 0.00 0.00 0.00 65 1013.9
20260508054514 49 285 0.0 2.6 0.00 0.00 0.00 65 1014.4
20260508054436 49 285 0.0 1.7 0.00 0.00 0.00 65 1014.1
20260508053707 49 285 0.9 1.7 0.00 0.00 0.00 65 1014.1
20260508053204 50 285 0.9 2.6 0.00 0.00 0.00 65 1014.1
20260508053027 49 285 0.9 2.6 0.00 0.00 0.00 64 1014.4
20260508052656 50 285 0.9 2.6 0.00 0.00 0.00 64 1014.1
20260508052153 50 285 0.9 4.3 0.00 0.00 0.00 64 1014.0
20260508051651 50 285 1.7 4.3 0.00 0.00 0.00 64 1014.0
20260508051558 49 285 0.9 4.3 0.00 0.00 0.00 64 1014.4
20260508051148 50 285 1.7 3.5 0.00 0.00 0.00 64 1013.9
20260508050848 50 285 1.7 3.5 0.00 0.00 0.00 63 1013.9
20260508050055 50 285 1.7 5.2 0.00 0.00 0.00 63 1013.8
20260508050004 50 285 0.0 5.2 0.00 0.00 0.00 63 1014.2
20260508045814 50 285 1.7 5.2 0.00 0.00 0.00 63 1013.8
20260508045028 50 285 1.7 4.3 0.00 0.00 0.00 63 1013.9
20260508044516 50 285 1.7 4.3 0.00 0.00 0.00 63 1014.3
20260508044458 50 285 1.7 4.3 0.00 0.00 0.00 63 1013.9
20260508043958 50 286 1.7 3.5 0.00 0.00 0.00 63 1013.9
20260508043432 50 285 0.9 2.6 0.00 0.00 0.00 63 1013.8
20260508043122 50 286 0.9 4.3 0.00 0.00 0.00 62 1013.8
20260508043033 50 285 0.9 2.6 0.00 0.00 0.00 62 1014.2
20260508042401 51 286 1.7 4.3 0.00 0.00 0.00 62 1013.8
20260508041831 51 286 0.9 3.5 0.00 0.00 0.00 61 1013.8
20260508041520 50 285 0.9 2.6 0.00 0.00 0.00 61 1014.2
20260508041328 51 285 0.9 2.6 0.00 0.00 0.00 61 1013.8
20260508040805 51 285 0.9 2.6 0.00 0.00 0.00 61 1013.8
20260508040247 51 285 0.9 2.6 0.00 0.00 0.00 61 1013.8
20260508040018 50 285 0.9 2.6 0.00 0.00 0.00 60 1014.2
20260508035748 51 285 1.7 4.3 0.00 0.00 0.00 61 1013.7
20260508035246 51 285 1.7 4.3 0.00 0.00 0.00 61 1013.6
20260508034939 51 285 0.9 3.5 0.00 0.00 0.00 61 1013.7
20260508034516 51 285 0.9 2.6 0.00 0.00 0.00 61 1014.1
20260508034216 51 285 0.9 3.5 0.00 0.00 0.00 61 1013.7
20260508033649 51 286 0.9 3.5 0.00 0.00 0.00 61 1013.7
20260508033146 51 286 0.9 3.5 0.00 0.00 0.00 60 1013.8
20260508033005 51 286 0.0 3.5 0.00 0.00 0.00 60 1014.2
20260508032622 51 286 0.9 2.6 0.00 0.00 0.00 60 1013.8
20260508032052 52 286 0.9 2.6 0.00 0.00 0.00 59 1013.8
20260508031550 52 286 0.9 4.3 0.00 0.00 0.00 58 1013.8
20260508031520 51 286 0.0 4.3 0.00 0.00 0.00 58 1014.2
20260508031023 52 286 1.7 4.3 0.00 0.00 0.00 57 1013.6
20260508030520 52 285 1.7 4.3 0.00 0.00 0.00 56 1013.6
20260508030010 52 285 0.9 3.5 0.00 0.00 0.00 56 1014.0
20260508025951 52 285 1.7 3.5 0.00 0.00 0.00 56 1013.6
20260508025450 53 285 1.7 3.5 0.00 0.00 0.00 55 1013.6
20260508025147 53 286 0.9 2.6 0.00 0.00 0.00 55 1013.7
20260508024527 52 285 0.9 2.6 0.00 0.00 0.00 55 1014.2
20260508024356 53 285 0.9 2.6 0.00 0.00 0.00 54 1013.7
20260508023854 53 286 0.9 2.6 0.00 0.00 0.00 54 1013.8
20260508023326 53 286 0.9 2.6 0.00 0.00 0.00 54 1013.8
20260508023101 53 286 0.0 2.6 0.00 0.00 0.00 53 1014.1
20260508022824 53 286 0.9 2.6 0.00 0.00 0.00 53 1013.7
20260508022321 53 286 0.9 2.6 0.00 0.00 0.00 52 1013.6
20260508021755 54 286 0.9 3.5 0.00 0.00 0.00 51 1013.5
20260508021710 54 286 0.9 3.5 0.00 0.00 0.00 50 1013.6
20260508021519 53 286 0.9 3.5 0.00 0.00 0.00 51 1014.0
20260508020701 54 286 0.9 2.6 0.00 0.00 0.00 50 1013.6
20260508020158 54 286 0.9 3.5 0.00 0.00 0.00 50 1013.5
20260508020047 54 286 0.9 3.5 0.00 0.00 0.00 50 1013.9
20260508015658 54 286 0.9 3.5 0.00 0.00 0.00 50 1013.5
20260508015131 54 287 0.9 3.5 0.00 0.00 0.00 49 1013.6
20260508014632 54 287 0.9 3.5 0.00 0.00 0.00 49 1013.6
20260508014602 54 287 0.0 3.5 0.00 0.00 0.00 49 1014.0
20260508014103 54 287 0.0 1.7 0.00 0.00 0.00 48 1013.5
20260508013602 54 287 0.0 1.7 0.00 0.00 0.00 48 1013.6
20260508013038 54 287 0.9 1.7 0.00 0.00 0.00 48 1013.6
20260508013007 54 287 0.0 1.7 0.00 0.00 0.00 48 1014.0
20260508012512 54 287 0.9 1.7 0.00 0.00 0.00 48 1013.6
20260508012012 54 287 0.0 1.7 0.00 0.00 0.00 47 1013.6
20260508011504 54 287 0.0 1.7 0.00 0.00 0.00 47 1013.9
20260508011446 54 287 0.9 1.7 0.00 0.00 0.00 47 1013.5
20260508010944 55 287 0.9 1.7 0.00 0.00 0.00 46 1013.5
20260508010903 55 288 0.9 1.7 0.00 0.00 0.00 46 1013.6
20260508010344 55 273 0.9 1.7 0.00 0.00 0.00 46 1013.5
20260508010039 55 288 0.0 1.7 0.00 0.00 0.00 46 1013.9
20260508005811 55 273 0.9 1.7 0.00 0.00 0.00 46 1013.5
20260508004828 56 273 0.9 3.5 0.00 0.00 0.00 44 1013.5
20260508004515 55 273 0.0 3.5 0.00 0.00 0.00 44 1013.8
20260508004328 56 273 0.0 3.5 0.00 0.00 0.00 44 1013.4
20260508004023 56 273 0.0 0.9 0.00 0.00 0.00 43 1013.3
20260508003243 57 273 0.0 0.9 0.00 0.00 0.00 42 1013.3
20260508003042 56 273 0.0 0.9 0.00 0.00 0.00 42 1013.7
20260508002740 57 273 0.0 0.9 0.00 0.00 0.00 42 1013.3
20260508002238 57 273 0.0 2.6 0.00 0.00 0.00 42 1013.3
20260508002002 58 273 0.9 2.6 0.00 0.00 0.00 40 1013.2
20260508001559 57 291 0.0 1.7 0.00 0.00 0.00 41 1013.6
20260508001226 58 287 0.9 3.5 0.00 0.00 0.00 41 1013.2
20260508000951 58 287 1.7 3.5 0.00 0.00 0.00 39 1013.3
20260508000208 58 287 1.7 6.1 0.00 0.00 0.00 39 1013.2
20260508000022 58 287 0.9 5.2 0.00 0.00 0.00 41 1013.6
20260507235643 59 287 1.7 6.1 0.00 0.00 0.00 39 1013.2
20260507235144 59 287 1.7 3.5 0.00 0.00 0.00 39 1013.2
20260507234622 59 286 1.7 7.0 0.00 0.00 0.00 39 1013.2
20260507234551 59 286 1.7 3.5 0.00 0.00 0.00 39 1013.5
20260507234106 59 163 1.7 7.0 0.00 0.00 0.00 39 1013.1
20260507233606 59 293 2.6 7.0 0.00 0.00 0.00 41 1013.1
20260507233106 60 164 2.6 7.0 0.00 0.00 0.00 38 1013.1
20260507233048 59 163 2.6 7.0 0.00 0.00 0.00 38 1013.5
20260507232825 60 210 1.7 6.1 0.00 0.00 0.00 39 1013.1
20260507232054 60 200 1.7 5.2 0.00 0.00 0.00 44 1013.1
20260507231553 60 147 0.9 3.5 0.00 0.00 0.00 38 1013.1
20260507231527 60 151 0.9 3.5 0.00 0.00 0.00 38 1013.4
20260507231035 60 127 1.7 5.2 0.00 0.00 0.00 38 1013.0
20260507230741 60 126 2.6 6.1 0.00 0.00 0.00 37 1013.1
20260507230056 60 188 2.6 6.1 0.00 0.00 0.00 38 1013.4
20260507230019 60 187 1.7 6.1 0.00 0.00 0.00 40 1013.1
20260507225523 60 205 1.7 7.8 0.00 0.00 0.00 38 1013.0
20260507225005 61 88 1.7 7.8 0.00 0.00 0.00 38 1013.1
20260507224557 60 205 1.7 5.2 0.00 0.00 0.00 36 1013.3
20260507224508 61 138 1.7 5.2 0.00 0.00 0.00 37 1013.0
20260507223939 61 143 1.7 4.3 0.00 0.00 0.00 42 1013.0
20260507223420 61 157 1.7 4.3 0.00 0.00 0.00 38 1013.0
20260507223059 61 230 0.9 4.3 0.00 0.00 0.00 37 1013.4
20260507222921 62 226 1.7 5.2 0.00 0.00 0.00 36 1013.0
20260507222422 62 207 1.7 2.6 0.00 0.00 0.00 37 1013.1
20260507222341 61 234 1.7 3.5 0.00 0.00 0.00 39 1013.1
20260507221523 60 236 0.9 4.3 0.00 0.00 0.00 38 1013.5
20260507221401 60 211 1.7 6.1 0.00 0.00 0.00 39 1013.2
20260507220902 60 206 2.6 7.8 0.00 0.00 0.00 39 1013.2
20260507220357 60 183 2.6 7.8 0.00 0.00 0.00 36 1013.2
20260507220043 60 278 3.5 7.8 0.00 0.00 0.00 36 1013.6
20260507215900 61 185 2.6 8.7 0.00 0.00 0.00 37 1013.3
20260507215355 60 194 2.6 8.7 0.00 0.00 0.00 41 1013.3
20260507214852 60 136 2.6 7.0 0.00 0.00 0.00 37 1013.3
20260507214530 60 211 0.9 7.0 0.00 0.00 0.00 36 1013.7
20260507214350 61 217 3.5 7.8 0.00 0.00 0.00 35 1013.3
20260507213826 61 190 3.5 7.8 0.00 0.00 0.00 39 1013.3
20260507213323 61 189 3.5 7.8 0.00 0.00 0.00 38 1013.3
20260507213033 61 181 3.5 13.0 0.00 0.00 0.00 38 1013.7
20260507212758 62 138 3.5 13.0 0.00 0.00 0.00 38 1013.4
20260507212256 62 211 2.6 5.2 0.00 0.00 0.00 39 1013.3
20260507211731 62 196 2.6 9.6 0.00 0.00 0.00 37 1013.3
20260507211555 62 172 2.6 9.6 0.00 0.00 0.00 36 1013.7
20260507211205 62 263 1.7 9.6 0.00 0.00 0.00 38 1013.4
20260507210639 62 246 1.7 7.0 0.00 0.00 0.00 37 1013.3
20260507210115 62 315 1.7 7.0 0.00 0.00 0.00 37 1013.2
20260507210054 62 322 1.7 7.0 0.00 0.00 0.00 38 1013.6
20260507205549 62 251 1.7 8.7 0.00 0.00 0.00 38 1013.2
20260507205024 61 215 3.5 8.7 0.00 0.00 0.00 39 1013.2
20260507204531 60 140 3.5 8.7 0.00 0.00 0.00 37 1013.6
20260507204456 61 198 4.3 10.4 0.00 0.00 0.00 37 1013.2
20260507204221 61 194 4.3 10.4 0.00 0.00 0.00 39 1013.2
20260507203931 61 209 3.5 8.7 0.00 0.00 0.00 40 1013.2
20260507203016 61 194 3.5 8.7 0.00 0.00 0.00 42 1013.5
20260507202944 61 126 2.6 8.7 0.00 0.00 0.00 42 1013.2
20260507202649 61 237 2.6 8.7 0.00 0.00 0.00 42 1013.1
20260507201912 61 198 3.5 8.7 0.00 0.00 0.00 37 1013.2
20260507201856 62 234 2.6 8.7 0.00 0.00 0.00 37 1013.2
20260507200846 62 242 2.6 7.0 0.00 0.00 0.00 39 1013.3
20260507200319 61 324 2.6 7.0 0.00 0.00 0.00 39 1013.2
20260507200053 60 317 0.9 7.0 0.00 0.00 0.00 41 1013.6
20260507195819 60 231 2.6 7.0 0.00 0.00 0.00 41 1013.3
20260507195251 61 159 3.5 7.0 0.00 0.00 0.00 44 1013.2
20260507194728 61 252 2.6 7.0 0.00 0.00 0.00 40 1013.3
20260507194546 61 284 3.5 7.0 0.00 0.00 0.00 39 1013.7
20260507194157 61 204 3.5 9.6 0.00 0.00 0.00 45 1013.4
20260507193653 60 192 3.5 9.6 0.00 0.00 0.00 38 1013.4
20260507193149 60 115 2.6 7.8 0.00 0.00 0.00 41 1013.6
20260507193028 60 113 1.7 5.2 0.00 0.00 0.00 41 1014.0
20260507192644 60 90 3.5 7.8 0.00 0.00 0.00 37 1013.5
20260507192116 61 124 2.6 7.8 0.00 0.00 0.00 39 1013.6
20260507191613 61 234 2.6 7.8 0.00 0.00 0.00 39 1013.5
20260507191543 60 234 1.7 7.8 0.00 0.00 0.00 39 1014.0
20260507191048 60 103 3.5 14.8 0.00 0.00 0.00 40 1013.5
20260507190521 60 255 3.5 14.8 0.00 0.00 0.00 37 1013.6
20260507190018 60 136 2.6 10.4 0.00 0.00 0.00 41 1013.5
20260507190006 60 101 2.6 7.8 0.00 0.00 0.00 41 1013.9
20260507185453 60 155 3.5 10.4 0.00 0.00 0.00 44 1013.6
20260507184923 60 200 4.3 10.4 0.00 0.00 0.00 44 1013.6
20260507184506 59 71 1.7 10.4 0.00 0.00 0.00 43 1014.1
20260507184422 60 150 4.3 10.4 0.00 0.00 0.00 41 1013.6
20260507183855 60 190 3.5 7.8 0.00 0.00 0.00 40 1013.5
20260507183327 60 203 3.5 10.4 0.00 0.00 0.00 43 1013.7
20260507183055 60 194 3.5 10.4 0.00 0.00 0.00 42 1013.9
20260507183020 59 165 3.5 10.4 0.00 0.00 0.00 45 1014.4
20260507182323 60 170 2.6 7.0 0.00 0.00 0.00 41 1013.9
20260507182021 60 206 3.5 7.8 0.00 0.00 0.00 41 1013.8
20260507181512 59 211 1.7 7.0 0.00 0.00 0.00 43 1014.3
20260507181231 60 155 2.6 7.8 0.00 0.00 0.00 43 1013.9
20260507180705 60 243 2.6 7.8 0.00 0.00 0.00 41 1013.8
20260507180139 59 23 3.5 7.0 0.00 0.00 0.00 42 1014.0
20260507180014 59 240 2.6 7.0 0.00 0.00 0.00 45 1014.4
20260507175635 59 167 2.6 7.0 0.00 0.00 0.00 44 1014.0
20260507175137 59 222 2.6 10.4 0.00 0.00 0.00 45 1014.1
20260507174827 58 184 3.5 10.4 0.00 0.00 0.00 45 1014.1
20260507174549 58 213 3.5 10.4 0.00 0.00 0.00 43 1014.1
20260507174540 58 140 1.7 10.4 0.00 0.00 0.00 45 1014.6
20260507173559 58 207 3.5 10.4 0.00 0.00 0.00 44 1014.2
20260507173053 57 199 5.2 10.4 0.00 0.00 0.00 43 1014.8
20260507173028 58 190 4.3 10.4 0.00 0.00 0.00 43 1014.3
20260507172528 58 26 3.5 7.8 0.00 0.00 0.00 41 1014.4
20260507172023 58 206 3.5 10.4 0.00 0.00 0.00 42 1014.4
20260507172002 57 283 3.5 10.4 0.00 0.00 0.00 41 1014.5
20260507171604 57 199 1.7 10.4 0.00 0.00 0.00 41 1015.0
20260507171010 58 181 3.5 8.7 0.00 0.00 0.00 44 1014.6
20260507170512 57 288 3.5 8.7 0.00 0.00 0.00 44 1014.7
20260507170000 56 286 3.5 10.4 0.00 0.00 0.00 43 1015.2
20260507165952 57 290 3.5 11.3 0.00 0.00 0.00 43 1014.7
20260507165452 57 287 4.3 12.2 0.00 0.00 0.00 47 1014.7
20260507164947 57 167 3.5 12.2 0.00 0.00 0.00 44 1014.8
20260507164502 57 118 1.7 7.0 0.00 0.00 0.00 46 1015.2
20260507164421 57 128 3.5 8.7 0.00 0.00 0.00 45 1014.7
20260507163913 56 209 3.5 14.8 0.00 0.00 0.00 47 1014.9
20260507163413 57 185 2.6 14.8 0.00 0.00 0.00 46 1014.9
20260507163010 56 324 1.7 7.0 0.00 0.00 0.00 44 1015.3
20260507162842 57 211 2.6 7.0 0.00 0.00 0.00 46 1014.9
20260507162342 56 53 3.5 9.6 0.00 0.00 0.00 51 1015.0
20260507162035 55 191 3.5 9.6 0.00 0.00 0.00 43 1015.0
20260507161501 55 151 4.3 9.6 0.00 0.00 0.00 42 1015.4
20260507161312 56 232 2.6 7.8 0.00 0.00 0.00 47 1015.0
20260507160743 56 253 2.6 7.8 0.00 0.00 0.00 45 1015.0
20260507160242 55 286 3.5 10.4 0.00 0.00 0.00 50 1014.9
20260507160103 54 289 2.6 10.4 0.00 0.00 0.00 45 1015.4
20260507155715 54 288 3.5 10.4 0.00 0.00 0.00 48 1015.0
20260507155214 55 288 3.5 9.6 0.00 0.00 0.00 45 1015.0
20260507154904 54 287 4.3 9.6 0.00 0.00 0.00 44 1015.0
20260507154551 54 288 4.3 9.6 0.00 0.00 0.00 45 1015.5
20260507154141 54 290 4.3 9.6 0.00 0.00 0.00 46 1015.0
20260507153901 54 289 3.5 11.3 0.00 0.00 0.00 46 1015.0
20260507153114 54 290 4.3 11.3 0.00 0.00 0.00 44 1015.0
20260507153050 53 290 5.2 11.3 0.00 0.00 0.00 44 1015.4
20260507152808 53 273 4.3 10.4 0.00 0.00 0.00 45 1014.9